[[{"header":{"parameterUnit":"m.s-1","parameterCategory":1,"la1":30.2991,"la2":30.254,"lo1":-89.0895,"lo2":-89.0444,"dy":0.0017,"dx":0.0017,"nx":28,"ny":28,"refTime":"2025-05-29T09:00:00:Z","depth":0,"parameterNumber":2,"parameterNumberName":"U-component_of_WINDS"},"data":[0,0,0,0,0,0,0,0,0,0,0,0,0,0,0,0,0,0,0,0,0,0,0,0,0,0,0,0,0,0,0,0,0,0,0,0,0,0,0,0,0,0,0,0,0,0,0,0,0,0,0,0,0,0,0,0,0,0,-0.5742,-0.5743,0,-0.5782,-0.5782,-0.5783,-0.5785,-0.5785,-0.5784,-0.5784,-0.5829,-0.583,-0.5832,0,0,0,0,0,0,0,0,0,0,0,0,0,-0.5674,-0.5675,-0.5742,-0.5743,-0.5743,-0.5782,-0.5782,-0.5783,-0.5785,-0.5785,-0.5784,-0.5784,-0.5828,-0.583,-0.5832,0,0,0,0,0,0,0,0,0,0,0,0,0,-0.5707,-0.5675,-0.5742,-0.5749,-0.575,-0.5782,-0.5782,-0.5783,-0.5785,-0.5785,-0.5784,-0.5783,-0.5828,-0.583,-0.5832,-0.5861,0,0,-0.584,-0.5841,0,0,0,0,0,0,0,0,-0.5706,-0.571,-0.5748,-0.5749,-0.575,-0.5778,-0.5775,-0.5809,-0.5786,-0.5772,-0.5784,-0.5783,-0.5813,-0.5816,-0.5825,-0.5863,-0.5865,-0.584,-0.5842,-0.5843,-0.5843,0,0,0,0,0,0,0,-0.5703,-0.5708,-0.5758,-0.5748,-0.5749,-0.5752,-0.5756,-0.5781,-0.5796,-0.5773,-0.5773,-0.5778,-0.5813,-0.5823,-0.5826,-0.5866,-0.584,-0.5842,-0.5844,-0.5845,-0.5931,-0.5932,0,0,0,0,0,0,-0.5699,-0.5706,-0.5757,-0.5759,-0.5725,-0.5753,-0.5758,-0.577,-0.5796,-0.5799,-0.5778,-0.5778,-0.5819,-0.5824,-0.5828,-0.5865,-0.5843,-0.5845,-0.5846,-0.593,-0.5931,-0.5932,0,0,0,0,0,0,-0.5697,-0.5703,-0.5755,-0.5733,-0.574,-0.5755,-0.5768,-0.5771,-0.578,-0.5799,-0.5803,-0.5785,-0.5819,-0.5825,-0.5853,-0.5866,-0.5846,-0.5848,-0.5929,-0.593,-0.5932,-0.5937,0,0,0,0,0,0,-0.5695,-0.5703,-0.5713,-0.5733,-0.5741,-0.5778,-0.5769,-0.5772,-0.5784,-0.5784,-0.5807,-0.581,-0.5819,-0.5849,-0.5855,-0.5869,-0.585,-0.5928,-0.593,-0.5931,-0.5936,-0.5938,-0.5941,0,0,0,0,0,-0.5693,-0.5714,-0.5713,-0.5719,-0.5753,-0.5779,-0.5783,-0.5792,-0.5785,-0.5796,-0.5808,-0.5809,-0.5863,-0.5852,-0.5859,-0.5874,-0.5927,-0.5929,-0.5931,-0.5935,-0.5938,-0.5941,0,0,0,0,0,0,-0.5696,-0.5716,-0.5716,-0.5744,-0.5759,-0.5779,-0.5793,-0.5794,-0.5813,-0.5812,-0.5823,-0.5828,-0.5857,-0.5868,-0.5855,-0.5904,-0.5895,-0.5898,-0.5895,-0.5899,-0.5901,-0.5898,-0.5852,0,0,0,0,0,-0.57,-0.5717,-0.5735,-0.5757,-0.5765,-0.5778,-0.5789,-0.5794,-0.5811,-0.5818,-0.5833,-0.5851,-0.5872,-0.5885,-0.5906,-0.5937,-0.5943,-0.5951,-0.5953,-0.5955,-0.5958,-0.5977,-0.5981,-0.5938,-0.5938,-0.5938,0,0,-0.5708,-0.5721,-0.5732,-0.5758,-0.5771,-0.579,-0.5783,-0.5804,-0.5819,-0.5822,-0.5849,-0.586,-0.5881,-0.5912,-0.5926,-0.5922,-0.5971,-0.5957,-0.5959,-0.5961,-0.5979,-0.5983,-0.5987,-0.5939,-0.5939,-0.5939,0,0,-0.5734,-0.5745,-0.5765,-0.5778,-0.5796,-0.5805,-0.5809,-0.5829,-0.5836,-0.5863,-0.5866,-0.5885,-0.592,-0.5936,-0.5948,-0.5979,-0.5981,-0.5985,-0.5998,-0.6016,-0.602,-0.6023,-0.6036,-0.604,-0.5988,-0.5988,-0.5988,0,-0.5743,-0.577,-0.5776,-0.5797,-0.5809,-0.581,-0.5832,-0.5844,-0.587,-0.5879,-0.5873,-0.5919,-0.5933,-0.5967,-0.5974,-0.5984,-0.5991,-0.5983,-0.6018,-0.6022,-0.6025,-0.6037,-0.6041,-0.5989,-0.5988,-0.5988,-0.5988,0,-0.5781,-0.58,-0.5815,-0.5837,-0.5851,-0.5872,-0.5882,-0.5896,-0.5899,-0.5909,-0.5937,-0.5954,-0.5978,-0.5986,-0.5991,-0.6022,-0.6019,-0.6016,-0.6008,-0.6029,-0.6041,-0.6046,-0.5989,-0.5989,-0.5989,-0.5989,0,0,-0.5811,-0.5835,-0.5841,-0.5852,-0.5872,-0.5888,-0.591,-0.5932,-0.5944,-0.5961,-0.5981,-0.6011,-0.6008,-0.6022,-0.6028,-0.6043,-0.6069,-0.6039,-0.604,-0.6045,-0.6106,-0.611,-0.6115,-0.6069,-0.607,-0.6071,-0.6105,0,-0.584,-0.5877,-0.5883,-0.5916,-0.5935,-0.5936,-0.5956,-0.5971,-0.598,-0.5999,-0.601,-0.6031,-0.6025,-0.6034,-0.6049,-0.6062,-0.6081,-0.606,-0.609,-0.6091,-0.6087,-0.6121,-0.6124,-0.6155,-0.6109,-0.611,-0.6111,0,-0.5879,-0.5896,-0.593,-0.5949,-0.5957,-0.5974,-0.5995,-0.6012,-0.603,-0.6036,-0.6051,-0.6055,-0.6079,-0.6068,-0.6103,-0.6088,-0.6101,-0.6109,-0.6111,-0.6116,-0.6104,-0.6128,-0.6165,-0.6171,-0.6118,-0.6117,-0.6117,0,-0.59,-0.5931,-0.5956,-0.5965,-0.5986,-0.5998,-0.6008,-0.6025,-0.6038,-0.6057,-0.6066,-0.6088,-0.6101,-0.6118,-0.6129,-0.6119,-0.6163,-0.6153,-0.6171,-0.6171,-0.6181,-0.6181,-0.6223,-0.6186,-0.6186,-0.6186,-0.6186,0,-0.5932,-0.5954,-0.5965,-0.5981,-0.6006,-0.6013,-0.6038,-0.6047,-0.6063,-0.6082,-0.6084,-0.6102,-0.6114,-0.6134,-0.6142,-0.6171,-0.6176,-0.6183,-0.6185,-0.6184,-0.6183,-0.6194,-0.6193,-0.6188,-0.6187,-0.6187,-0.6187,0,-0.5961,-0.5968,-0.5996,-0.6014,-0.6018,-0.6036,-0.6052,-0.6068,-0.6077,-0.6101,-0.6107,-0.6121,-0.6145,-0.6156,-0.6187,-0.6192,-0.6225,-0.6225,-0.6219,-0.622,-0.6238,-0.6237,-0.629,-0.6298,-0.6254,-0.6254,-0.6255,0,-0.5982,-0.5999,-0.6017,-0.6029,-0.6039,-0.6058,-0.6071,-0.6079,-0.6092,-0.6114,-0.6128,-0.6152,-0.6171,-0.621,-0.6224,-0.6247,-0.6249,-0.6266,-0.6253,-0.6251,-0.6252,-0.6251,-0.6254,-0.6269,-0.627,-0.627,-0.627,0,-0.602,-0.6023,-0.604,-0.606,-0.6075,-0.6091,-0.6107,-0.6117,-0.6127,-0.6142,-0.6166,-0.6181,-0.6211,-0.6235,-0.6259,-0.6271,-0.6274,-0.6274,-0.628,-0.6279,-0.6276,-0.628,-0.6227,-0.6273,-0.6273,-0.6273,-0.6273,-0.6272,-0.6047,-0.6062,-0.6077,-0.6097,-0.6109,-0.6124,-0.614,-0.615,-0.6169,-0.6193,-0.6197,-0.6222,-0.6241,-0.6273,-0.6286,-0.6307,-0.6304,-0.6311,-0.6314,-0.6316,-0.6318,-0.627,-0.6312,-0.6311,-0.6311,-0.6311,-0.6311,0,-0.6086,-0.6096,-0.6114,-0.6135,-0.6151,-0.6149,-0.6166,-0.6181,-0.6203,-0.6219,-0.6237,-0.6265,-0.6288,-0.6304,-0.6328,-0.6342,-0.6344,-0.6349,-0.6349,-0.6352,-0.6319,-0.6312,-0.6347,-0.6347,-0.6347,-0.6347,-0.6347,-0.6347,-0.6109,-0.6135,-0.6139,-0.6172,-0.6182,-0.6206,-0.6216,-0.623,-0.6243,-0.6273,-0.6292,-0.6301,-0.6318,-0.6343,-0.6365,-0.6369,-0.6379,-0.6384,-0.6388,-0.6358,-0.6354,-0.6351,-0.6345,-0.6385,-0.6385,-0.642,-0.642,-0.642]},{"header":{"parameterUnit":"m.s-1","parameterCategory":1,"la1":30.2991,"la2":30.254,"lo1":-89.0895,"lo2":-89.0444,"dy":0.0017,"dx":0.0017,"nx":28,"ny":28,"refTime":"2025-05-29T09:00:00:Z","depth":0,"parameterNumber":3,"parameterNumberName":"V-component_of_WINDS"},"data":[0,0,0,0,0,0,0,0,0,0,0,0,0,0,0,0,0,0,0,0,0,0,0,0,0,0,0,0,0,0,0,0,0,0,0,0,0,0,0,0,0,0,0,0,0,0,0,0,0,0,0,0,0,0,0,0,0,0,3.1725,3.1726,0,3.1795,3.1796,3.1797,3.1788,3.1787,3.1786,3.1785,3.1856,3.1858,3.1861,0,0,0,0,0,0,0,0,0,0,0,0,0,3.158,3.1583,3.1725,3.1726,3.1727,3.1795,3.1796,3.1797,3.1788,3.1787,3.1786,3.1784,3.1855,3.1858,3.1862,0,0,0,0,0,0,0,0,0,0,0,0,0,3.1646,3.1583,3.1725,3.1731,3.1732,3.1795,3.1796,3.1797,3.1789,3.1787,3.1785,3.1784,3.1853,3.1858,3.1862,3.1923,0,0,3.1876,3.1877,0,0,0,0,0,0,0,0,3.1642,3.1651,3.1729,3.173,3.1732,3.1781,3.1771,3.184,3.1789,3.1767,3.1785,3.1783,3.1832,3.1838,3.1855,3.1927,3.193,3.1876,3.1879,3.188,3.1882,0,0,0,0,0,0,0,3.1637,3.1648,3.1753,3.173,3.1732,3.1729,3.1736,3.1784,3.1808,3.1769,3.1768,3.1777,3.1833,3.1851,3.1857,3.1931,3.1876,3.188,3.1882,3.1884,3.2053,3.2055,0,0,0,0,0,0,3.1632,3.1644,3.175,3.1755,3.1682,3.1733,3.1741,3.1767,3.1808,3.1812,3.1778,3.1776,3.1844,3.1852,3.1859,3.1931,3.188,3.1885,3.1887,3.2051,3.2053,3.2055,0,0,0,0,0,0,3.1629,3.1641,3.1748,3.1699,3.1713,3.1737,3.1766,3.1769,3.1788,3.1815,3.1819,3.1793,3.1843,3.1853,3.1907,3.1934,3.1887,3.1891,3.2049,3.2052,3.2054,3.2078,0,0,0,0,0,0,3.1625,3.164,3.1665,3.17,3.1715,3.1795,3.1768,3.1772,3.1795,3.1793,3.1829,3.1834,3.1843,3.19,3.1911,3.1939,3.1894,3.2047,3.205,3.2053,3.2075,3.2081,3.2086,0,0,0,0,0,3.1619,3.1669,3.1666,3.1679,3.1747,3.1797,3.1805,3.1815,3.1798,3.1822,3.1839,3.1833,3.1929,3.1906,3.1918,3.1948,3.2045,3.2049,3.2053,3.2072,3.208,3.2086,0,0,0,0,0,0,3.1636,3.1674,3.1671,3.1734,3.1762,3.1795,3.1826,3.1823,3.1857,3.1854,3.1864,3.1872,3.1926,3.1942,3.1916,3.2008,3.1985,3.1991,3.1995,3.2002,3.2008,3.2002,3.1898,0,0,0,0,0,3.1647,3.1686,3.1716,3.1768,3.1783,3.1802,3.1824,3.1829,3.1859,3.1871,3.1892,3.192,3.1957,3.1981,3.2016,3.2077,3.2084,3.2103,3.2109,3.2114,3.2119,3.215,3.2158,3.2069,3.2069,3.2069,0,0,3.167,3.1695,3.1719,3.1772,3.1795,3.1833,3.1812,3.1854,3.1882,3.1877,3.1928,3.1945,3.1977,3.2034,3.2061,3.205,3.2145,3.2119,3.2123,3.2125,3.2155,3.2164,3.2171,3.2072,3.2071,3.2071,0,0,3.1731,3.1755,3.18,3.1823,3.1857,3.1869,3.188,3.1913,3.1924,3.1976,3.1972,3.2005,3.2069,3.2091,3.2111,3.2178,3.2172,3.2189,3.2219,3.2249,3.2256,3.2262,3.2284,3.2292,3.2195,3.2195,3.2195,0,3.1756,3.1814,3.1823,3.1865,3.1887,3.1884,3.1928,3.195,3.1994,3.2009,3.1997,3.2074,3.2096,3.2157,3.2173,3.219,3.2201,3.2185,3.2255,3.2261,3.2267,3.2288,3.2296,3.2196,3.2196,3.2196,3.2196,0,3.184,3.1881,3.1913,3.1955,3.1981,3.2024,3.2038,3.2063,3.2065,3.2078,3.213,3.2156,3.2195,3.221,3.2213,3.2271,3.2263,3.2253,3.2229,3.2277,3.2296,3.2305,3.2199,3.2198,3.2197,3.2197,0,0,3.1915,3.196,3.1971,3.1989,3.2026,3.2057,3.2098,3.2137,3.2157,3.2187,3.2221,3.2274,3.2264,3.2286,3.2291,3.2318,3.2366,3.2304,3.2305,3.2313,3.2429,3.2435,3.2444,3.2363,3.2365,3.2366,3.2425,0,3.1978,3.2052,3.2061,3.2126,3.2162,3.2159,3.2195,3.222,3.2233,3.2264,3.2278,3.2315,3.23,3.2313,3.2339,3.2355,3.2389,3.2351,3.2393,3.2395,3.2384,3.2455,3.2462,3.2517,3.2433,3.2435,3.2436,0,3.2062,3.2093,3.2162,3.2191,3.2207,3.2239,3.2273,3.2304,3.2332,3.234,3.2363,3.2365,3.2406,3.2382,3.2438,3.2411,3.2429,3.2439,3.2441,3.2444,3.2417,3.2458,3.2535,3.2542,3.2448,3.2447,3.2446,0,3.2106,3.2166,3.2214,3.223,3.2266,3.2288,3.2304,3.2331,3.2352,3.2382,3.2396,3.2431,3.2449,3.2475,3.2485,3.2467,3.2539,3.2517,3.2545,3.2545,3.256,3.2558,3.2638,3.2574,3.2574,3.2574,3.2574,0,3.2175,3.2216,3.2234,3.2264,3.2309,3.2318,3.2363,3.2378,3.2401,3.2433,3.2432,3.2461,3.2473,3.2504,3.2512,3.2555,3.2564,3.257,3.2571,3.2569,3.2568,3.258,3.2576,3.2576,3.2575,3.2575,3.2575,0,3.2232,3.2246,3.2297,3.2327,3.2335,3.2367,3.2392,3.2419,3.2431,3.2471,3.248,3.2499,3.2535,3.2547,3.2591,3.2596,3.2646,3.2645,3.2636,3.2636,3.2663,3.266,3.2752,3.2764,3.2694,3.2694,3.2695,0,3.2274,3.2306,3.2338,3.2358,3.2375,3.2409,3.243,3.244,3.2462,3.2496,3.2519,3.2554,3.2583,3.264,3.2657,3.269,3.2688,3.2719,3.2693,3.2689,3.2686,3.2683,3.2686,3.2723,3.2723,3.2724,3.2725,0,3.2346,3.2351,3.2382,3.2415,3.2441,3.2468,3.2494,3.2511,3.2524,3.2549,3.2585,3.2607,3.2651,3.2686,3.2719,3.2734,3.2731,3.2732,3.274,3.2738,3.273,3.2732,3.2647,3.273,3.273,3.2729,3.2729,3.2729,3.2396,3.2423,3.2449,3.2483,3.2503,3.2527,3.2553,3.2568,3.2599,3.2635,3.2639,3.2677,3.2702,3.2746,3.2763,3.2793,3.2784,3.2796,3.2799,3.2801,3.2802,3.2727,3.2799,3.2799,3.2799,3.2799,3.2799,0,3.2466,3.2482,3.2514,3.2549,3.2576,3.2571,3.2598,3.262,3.2654,3.2678,3.2706,3.2747,3.278,3.2798,3.2831,3.2851,3.285,3.2859,3.2857,3.286,3.2809,3.2798,3.2859,3.2859,3.2859,3.2859,3.2859,3.2859,3.2506,3.255,3.2558,3.2611,3.2627,3.2665,3.2681,3.2702,3.272,3.2766,3.2793,3.2805,3.2826,3.286,3.2889,3.2894,3.2905,3.2915,3.2918,3.287,3.2864,3.2858,3.2847,3.2917,3.2917,3.2966,3.2966,3.2967]}]]